QPF
0.00 0.00 0.00 0.00 0.00 0.00 0.00 0.00 0.00 0.00 0.00 0.00 0.00 0.00 0.00 0.00 0.00 0.00 0.00 0.00 0.00 0.01 0.01 0.01 0.01 0.01 0.02 0.02 0.02 0.02 0.02 0.03 0.03 0.02 0.02 0.01 0.01 0.01 0.01 0.01 0.01 0.02 0.02 0.04
0.00 0.00 0.00 0.00 0.00 0.00 0.00 0.00 0.00 0.00 0.00 0.00 0.00 0.00 0.00 0.00 0.00 0.00 0.00 0.00 0.00 0.00 0.00 0.01 0.01 0.00 0.01 0.01 0.01 0.02 0.02 0.02 0.02 0.01 0.01 0.01 0.01 0.01 0.01 0.01 0.02 0.02 0.04 0.06
0.00 0.00 0.00 0.00 0.00 0.00 0.00 0.00 0.00 0.00 0.00 0.00 0.00 0.00 0.00 0.00 0.00 0.00 0.00 0.00 0.00 0.00 0.01 0.02 0.01 0.01 0.01 0.01 0.01 0.01 0.01 0.01 0.00 0.01 0.01 0.01 0.01 0.00 0.01 0.01 0.02 0.03 0.05 0.06
0.00 0.00 0.00 0.00 0.00 0.00 0.00 0.00 0.00 0.00 0.00 0.00 0.00 0.00 0.00 0.00 0.00 0.00 0.00 0.00 0.00 0.01 0.01 0.02 0.01 0.01 0.01 0.00 0.00 0.01 0.01 0.01 0.01 0.01 0.01 0.01 0.02 0.02 0.02 0.02 0.02 0.03 0.04 0.06
0.00 0.00 0.00 0.00 0.00 0.00 0.00 0.00 0.00 0.00 0.00 0.00 0.00 0.00 0.00 0.00 0.00 0.00 0.00 0.00 0.00 0.01 0.01 0.02 0.01 0.00 0.01 0.00 0.01 0.01 0.01 0.01 0.02 0.02 0.02 0.02 0.02 0.03 0.03 0.04 0.04 0.04 0.05 0.05
0.00 0.00 0.00 0.00 0.00 0.00 0.00 0.00 0.00 0.00 0.00 0.01 0.01 0.01 0.01 0.00 0.00 0.00 0.00 0.01 0.01 0.01 0.02 0.02 0.01 0.01 0.01 0.01 0.01 0.01 0.01 0.01 0.01 0.01 0.02 0.03 0.03 0.04 0.06 0.07 0.07 0.06 0.05 0.04
0.00 0.00 0.00 0.00 0.00 0.00 0.01 0.01 0.01 0.00 0.00 0.01 0.01 0.01 0.00 0.01 0.01 0.01 0.01 0.01 0.01 0.01 0.02 0.02 0.00 0.00 0.01 0.01 0.01 0.01 0.01 0.02 0.02 0.03 0.03 0.04 0.05 0.06 0.06 0.07 0.07 0.06 0.04 0.04
0.01 0.01 0.01 0.01 0.00 0.01 0.02 0.01 0.01 0.01 0.00 0.01 0.01 0.01 0.01 0.02 0.02 0.01 0.01 0.01 0.01 0.02 0.02 0.02 0.01 0.00 0.01 0.01 0.01 0.01 0.02 0.03 0.04 0.05 0.06 0.07 0.07 0.07 0.06 0.07 0.06 0.05 0.04 0.03
0.01 0.01 0.01 0.01 0.00 0.01 0.01 0.01 0.01 0.01 0.01 0.01 0.02 0.02 0.02 0.03 0.03 0.03 0.02 0.01 0.02 0.02 0.02 0.02 0.01 0.01 0.01 0.01 0.01 0.02 0.04 0.05 0.06 0.08 0.09 0.09 0.07 0.07 0.07 0.06 0.05 0.04 0.03 0.03
0.01 0.01 0.01 0.01 0.01 0.01 0.02 0.02 0.01 0.01 0.01 0.01 0.02 0.02 0.03 0.03 0.03 0.03 0.03 0.02 0.02 0.02 0.02 0.01 0.01 0.01 0.01 0.02 0.02 0.03 0.05 0.06 0.06 0.07 0.07 0.08 0.08 0.08 0.08 0.06 0.05 0.04 0.04 0.03
0.01 0.01 0.01 0.01 0.01 0.02 0.02 0.03 0.02 0.02 0.02 0.02 0.02 0.03 0.04 0.04 0.03 0.03 0.02 0.03 0.02 0.02 0.02 0.02 0.02 0.01 0.01 0.01 0.01 0.01 0.02 0.02 0.03 0.03 0.04 0.05 0.06 0.07 0.06 0.05 0.04 0.03 0.03 0.02
0.01 0.01 0.01 0.01 0.01 0.01 0.02 0.03 0.03 0.03 0.03 0.02 0.03 0.06 0.07 0.04 0.03 0.03 0.02 0.02 0.02 0.02 0.02 0.02 0.02 0.02 0.02 0.02 0.02 0.02 0.02 0.02 0.02 0.01 0.01 0.02 0.03 0.03 0.03 0.03 0.03 0.02 0.02 0.02
0.01 0.01 0.01 0.01 0.01 0.01 0.02 0.03 0.03 0.03 0.03 0.03 0.03 0.05 0.06 0.04 0.03 0.03 0.02 0.02 0.02 0.01 0.01 0.02 0.02 0.02 0.03 0.02 0.03 0.02 0.02 0.02 0.02 0.02 0.02 0.02 0.02 0.04 0.03 0.04 0.04 0.04 0.03 0.03
0.01 0.01 0.01 0.01 0.01 0.01 0.01 0.01 0.01 0.01 0.02 0.02 0.02 0.03 0.03 0.02 0.02 0.02 0.02 0.01 0.02 0.02 0.02 0.03 0.04 0.03 0.02 0.02 0.02 0.03 0.02 0.02 0.02 0.02 0.03 0.03 0.03 0.04 0.04 0.03 0.03 0.03 0.03 0.03
0.01 0.01 0.01 0.01 0.01 0.01 0.01 0.01 0.01 0.01 0.01 0.01 0.01 0.02 0.02 0.02 0.01 0.01 0.01 0.01 0.02 0.01 0.01 0.02 0.04 0.03 0.01 0.01 0.01 0.01 0.02 0.03 0.03 0.03 0.03 0.02 0.02 0.03 0.04 0.04 0.04 0.03 0.02 0.03
0.01 0.01 0.01 0.01 0.01 0.01 0.01 0.01 0.01 0.01 0.01 0.02 0.03 0.03 0.02 0.02 0.02 0.01 0.01 0.01 0.01 0.01 0.01 0.02 0.03 0.03 0.02 0.01 0.01 0.01 0.02 0.03 0.03 0.04 0.04 0.04 0.04 0.03 0.03 0.04 0.05 0.05 0.04 0.03
0.02 0.02 0.02 0.02 0.01 0.01 0.01 0.01 0.01 0.01 0.01 0.02 0.02 0.01 0.01 0.02 0.01 0.02 0.02 0.01 0.02 0.01 0.01 0.01 0.02 0.02 0.01 0.01 0.01 0.01 0.01 0.02 0.02 0.02 0.03 0.03 0.03 0.03 0.03 0.03 0.04 0.04 0.04 0.04
0.01 0.02 0.02 0.02 0.01 0.01 0.01 0.01 0.01 0.01 0.01 0.01 0.01 0.01 0.01 0.01 0.01 0.02 0.02 0.02 0.02 0.02 0.01 0.01 0.01 0.01 0.01 0.01 0.01 0.01 0.00 0.00 0.01 0.01 0.02 0.02 0.02 0.02 0.03 0.03 0.03 0.03 0.03 0.03
0.01 0.01 0.02 0.02 0.01 0.01 0.01 0.01 0.01 0.01 0.00 0.01 0.01 0.02 0.02 0.02 0.02 0.03 0.03 0.03 0.04 0.03 0.02 0.01 0.01 0.01 0.01 0.02 0.01 0.01 0.00 0.00 0.01 0.01 0.01 0.01 0.02 0.03 0.03 0.02 0.02 0.02 0.02 0.02
0.02 0.02 0.02 0.02 0.01 0.01 0.01 0.00 0.00 0.00 0.01 0.01 0.01 0.02 0.02 0.02 0.02 0.02 0.03 0.04 0.05 0.04 0.03 0.03 0.02 0.01 0.01 0.01 0.01 0.01 0.01 0.01 0.01 0.02 0.02 0.02 0.03 0.03 0.02 0.01 0.01 0.02 0.02 0.03
0.03 0.02 0.02 0.01 0.01 0.00 0.00 0.01 0.01 0.01 0.01 0.02 0.02 0.02 0.02 0.02 0.02 0.02 0.02 0.02 0.03 0.04 0.04 0.04 0.02 0.02 0.01 0.01 0.01 0.01 0.02 0.02 0.03 0.03 0.03 0.04 0.03 0.02 0.02 0.02 0.02 0.02 0.02 0.02
0.03 0.02 0.02 0.01 0.01 0.01 0.01 0.01 0.01 0.01 0.02 0.02 0.02 0.02 0.02 0.02 0.02 0.02 0.01 0.02 0.02 0.02 0.02 0.02 0.02 0.03 0.02 0.02 0.01 0.02 0.02 0.02 0.02 0.03 0.03 0.03 0.02 0.02 0.02 0.02 0.02 0.02 0.02 0.02
0.01 0.01 0.01 0.01 0.01 0.01 0.01 0.01 0.01 0.01 0.02 0.02 0.01 0.02 0.02 0.02 0.03 0.03 0.02 0.02 0.02 0.02 0.02 0.02 0.01 0.02 0.02 0.02 0.02 0.02 0.02 0.02 0.02 0.02 0.03 0.03 0.01 0.01 0.01 0.02 0.02 0.02 0.02 0.02
0.01 0.01 0.01 0.01 0.01 0.01 0.01 0.01 0.01 0.01 0.01 0.01 0.01 0.01 0.02 0.02 0.02 0.02 0.01 0.02 0.02 0.01 0.01 0.01 0.01 0.01 0.01 0.02 0.02 0.03 0.02 0.02 0.02 0.02 0.02 0.02 0.02 0.01 0.01 0.01 0.01 0.01 0.02 0.02
0.01 0.01 0.01 0.01 0.01 0.01 0.01 0.01 0.01 0.02 0.02 0.02 0.02 0.01 0.01 0.02 0.02 0.02 0.03 0.03 0.02 0.02 0.02 0.02 0.02 0.02 0.02 0.02 0.02 0.03 0.03 0.02 0.02 0.02 0.02 0.02 0.02 0.02 0.02 0.02 0.02 0.02 0.02 0.02
0.01 0.01 0.01 0.02 0.01 0.01 0.00 0.01 0.01 0.02 0.02 0.03 0.02 0.01 0.01 0.02 0.02 0.03 0.03 0.03 0.02 0.02 0.02 0.03 0.03 0.02 0.02 0.02 0.02 0.02 0.01 0.02 0.02 0.03 0.03 0.03 0.03 0.03 0.03 0.04 0.03 0.03 0.02 0.03
0.01 0.01 0.01 0.01 0.01 0.00 0.01 0.01 0.02 0.02 0.03 0.03 0.02 0.01 0.02 0.02 0.03 0.03 0.03 0.03 0.02 0.02 0.02 0.02 0.02 0.02 0.02 0.02 0.02 0.02 0.01 0.02 0.02 0.02 0.02 0.02 0.03 0.05 0.05 0.06 0.05 0.05 0.05 0.04
MSLP
1019.18 1019.45 1019.66 1019.84 1020.01 1020.16 1020.32 1020.48 1020.63 1020.76 1020.85 1020.88 1020.84 1020.71 1020.51 1020.21 1019.83 1019.37 1018.84 1018.24 1017.58 1016.89 1016.15 1015.40 1014.65 1013.91 1013.20 1012.53 1011.92 1011.36 1010.85 1010.40 1010.00 1009.63 1009.30 1009.00 1008.73 1008.50 1008.32 1008.20 1008.14 1008.16 1008.26 1008.43
1019.45 1019.74 1019.97 1020.14 1020.29 1020.42 1020.54 1020.65 1020.74 1020.81 1020.83 1020.81 1020.71 1020.54 1020.30 1019.97 1019.57 1019.10 1018.57 1017.98 1017.33 1016.65 1015.94 1015.21 1014.47 1013.73 1013.02 1012.34 1011.71 1011.13 1010.60 1010.12 1009.69 1009.30 1008.94 1008.62 1008.32 1008.07 1007.85 1007.69 1007.60 1007.57 1007.61 1007.72
1019.60 1019.89 1020.12 1020.29 1020.42 1020.54 1020.64 1020.72 1020.78 1020.81 1020.80 1020.73 1020.59 1020.38 1020.09 1019.73 1019.31 1018.82 1018.28 1017.69 1017.06 1016.40 1015.72 1015.01 1014.30 1013.59 1012.89 1012.21 1011.56 1010.96 1010.40 1009.89 1009.42 1009.00 1008.62 1008.28 1007.97 1007.71 1007.48 1007.30 1007.18 1007.11 1007.11 1007.17
1019.64 1019.90 1020.10 1020.26 1020.38 1020.49 1020.59 1020.67 1020.73 1020.76 1020.73 1020.64 1020.48 1020.24 1019.92 1019.53 1019.07 1018.57 1018.02 1017.43 1016.82 1016.19 1015.54 1014.87 1014.19 1013.50 1012.80 1012.12 1011.46 1010.82 1010.23 1009.68 1009.17 1008.72 1008.31 1007.96 1007.65 1007.39 1007.17 1007.00 1006.88 1006.81 1006.78 1006.81
1019.53 1019.74 1019.91 1020.04 1020.16 1020.28 1020.39 1020.49 1020.57 1020.62 1020.60 1020.52 1020.36 1020.10 1019.77 1019.36 1018.89 1018.37 1017.82 1017.25 1016.65 1016.04 1015.42 1014.78 1014.12 1013.44 1012.75 1012.06 1011.36 1010.69 1010.04 1009.44 1008.90 1008.41 1007.98 1007.63 1007.33 1007.10 1006.91 1006.78 1006.69 1006.64 1006.62 1006.63
1019.27 1019.43 1019.55 1019.67 1019.78 1019.91 1020.05 1020.18 1020.30 1020.39 1020.41 1020.35 1020.21 1019.97 1019.64 1019.23 1018.76 1018.24 1017.70 1017.13 1016.55 1015.96 1015.36 1014.74 1014.09 1013.41 1012.71 1011.99 1011.26 1010.53 1009.83 1009.18 1008.59 1008.07 1007.64 1007.29 1007.02 1006.83 1006.70 1006.63 1006.59 1006.59 1006.59 1006.60
1018.87 1018.97 1019.06 1019.16 1019.28 1019.42 1019.59 1019.77 1019.94 1020.08 1020.15 1020.14 1020.03 1019.82 1019.52 1019.13 1018.67 1018.16 1017.63 1017.07 1016.51 1015.93 1015.34 1014.72 1014.07 1013.39 1012.66 1011.90 1011.13 1010.36 1009.61 1008.91 1008.28 1007.74 1007.30 1006.97 1006.74 1006.60 1006.54 1006.54 1006.58 1006.63 1006.68 1006.71
1018.34 1018.41 1018.48 1018.57 1018.70 1018.87 1019.08 1019.31 1019.53 1019.72 1019.85 1019.89 1019.82 1019.66 1019.38 1019.02 1018.59 1018.10 1017.59 1017.05 1016.49 1015.93 1015.34 1014.72 1014.06 1013.35 1012.60 1011.81 1011.00 1010.19 1009.40 1008.67 1008.02 1007.47 1007.04 1006.73 1006.55 1006.47 1006.49 1006.56 1006.66 1006.78 1006.86 1006.91
1017.73 1017.79 1017.86 1017.96 1018.12 1018.32 1018.57 1018.85 1019.12 1019.36 1019.53 1019.62 1019.60 1019.47 1019.24 1018.91 1018.51 1018.05 1017.55 1017.03 1016.48 1015.92 1015.33 1014.71 1014.04 1013.33 1012.56 1011.75 1010.92 1010.08 1009.28 1008.54 1007.88 1007.34 1006.94 1006.67 1006.53 1006.50 1006.57 1006.70 1006.86 1007.02 1007.13 1007.18
1017.08 1017.15 1017.25 1017.39 1017.58 1017.83 1018.12 1018.44 1018.76 1019.03 1019.25 1019.37 1019.39 1019.29 1019.09 1018.79 1018.41 1017.98 1017.50 1017.00 1016.47 1015.91 1015.33 1014.71 1014.05 1013.33 1012.57 1011.76 1010.93 1010.11 1009.32 1008.60 1007.97 1007.45 1007.08 1006.84 1006.74 1006.75 1006.85 1007.01 1007.20 1007.37 1007.48 1007.51
1016.44 1016.55 1016.70 1016.89 1017.13 1017.43 1017.77 1018.13 1018.47 1018.78 1019.02 1019.16 1019.19 1019.12 1018.93 1018.66 1018.30 1017.89 1017.44 1016.95 1016.45 1015.91 1015.34 1014.74 1014.10 1013.40 1012.67 1011.90 1011.11 1010.33 1009.59 1008.91 1008.33 1007.86 1007.52 1007.31 1007.23 1007.26 1007.37 1007.53 1007.70 1007.85 1007.94 1007.93
1015.84 1016.01 1016.22 1016.47 1016.78 1017.14 1017.52 1017.91 1018.28 1018.60 1018.84 1018.98 1019.02 1018.95 1018.78 1018.51 1018.18 1017.79 1017.36 1016.91 1016.42 1015.92 1015.39 1014.82 1014.22 1013.57 1012.90 1012.19 1011.47 1010.77 1010.11 1009.50 1008.98 1008.57 1008.27 1008.09 1008.01 1008.03 1008.12 1008.25 1008.38 1008.48 1008.52 1008.46
1015.29 1015.52 1015.80 1016.14 1016.51 1016.93 1017.35 1017.77 1018.15 1018.46 1018.70 1018.83 1018.86 1018.78 1018.61 1018.35 1018.04 1017.67 1017.27 1016.85 1016.41 1015.94 1015.46 1014.95 1014.41 1013.84 1013.24 1012.63 1012.01 1011.40 1010.84 1010.32 1009.88 1009.53 1009.27 1009.10 1009.03 1009.02 1009.07 1009.14 1009.21 1009.25 1009.22 1009.11
1014.79 1015.08 1015.44 1015.84 1016.29 1016.75 1017.22 1017.65 1018.04 1018.35 1018.56 1018.68 1018.69 1018.59 1018.42 1018.17 1017.87 1017.53 1017.16 1016.78 1016.39 1015.98 1015.56 1015.12 1014.65 1014.17 1013.67 1013.16 1012.65 1012.16 1011.70 1011.28 1010.92 1010.63 1010.41 1010.26 1010.17 1010.14 1010.13 1010.14 1010.15 1010.12 1010.03 1009.88
1014.32 1014.67 1015.09 1015.56 1016.06 1016.58 1017.07 1017.52 1017.91 1018.20 1018.40 1018.49 1018.48 1018.37 1018.19 1017.95 1017.67 1017.36 1017.03 1016.69 1016.35 1016.01 1015.65 1015.29 1014.91 1014.52 1014.12 1013.71 1013.32 1012.93 1012.57 1012.25 1011.97 1011.74 1011.56 1011.42 1011.33 1011.26 1011.21 1011.16 1011.11 1011.02 1010.90 1010.71
1013.87 1014.27 1014.74 1015.26 1015.81 1016.36 1016.88 1017.34 1017.71 1018.00 1018.17 1018.24 1018.22 1018.10 1017.92 1017.69 1017.43 1017.15 1016.87 1016.58 1016.29 1016.01 1015.72 1015.43 1015.13 1014.82 1014.51 1014.20 1013.90 1013.61 1013.35 1013.11 1012.90 1012.72 1012.58 1012.45 1012.35 1012.26 1012.18 1012.09 1012.00 1011.88 1011.74 1011.56
1013.44 1013.86 1014.37 1014.93 1015.51 1016.08 1016.61 1017.07 1017.45 1017.72 1017.88 1017.94 1017.90 1017.79 1017.61 1017.40 1017.17 1016.92 1016.67 1016.43 1016.20 1015.97 1015.74 1015.50 1015.27 1015.03 1014.79 1014.55 1014.32 1014.11 1013.92 1013.74 1013.59 1013.46 1013.34 1013.24 1013.14 1013.05 1012.95 1012.84 1012.73 1012.61 1012.47 1012.32
1013.02 1013.46 1013.99 1014.57 1015.16 1015.74 1016.28 1016.74 1017.10 1017.36 1017.51 1017.57 1017.53 1017.42 1017.27 1017.08 1016.87 1016.66 1016.46 1016.26 1016.07 1015.88 1015.69 1015.50 1015.30 1015.10 1014.91 1014.72 1014.54 1014.38 1014.24 1014.11 1014.00 1013.90 1013.82 1013.73 1013.65 1013.56 1013.46 1013.36 1013.25 1013.14 1013.03 1012.92
1012.61 1013.06 1013.60 1014.18 1014.77 1015.35 1015.87 1016.32 1016.68 1016.93 1017.09 1017.14 1017.12 1017.03 1016.90 1016.74 1016.57 1016.39 1016.22 1016.06 1015.89 1015.73 1015.57 1015.40 1015.23 1015.06 1014.88 1014.72 1014.56 1014.42 1014.30 1014.20 1014.12 1014.05 1013.99 1013.93 1013.86 1013.79 1013.71 1013.62 1013.54 1013.46 1013.39 1013.33
1012.24 1012.69 1013.21 1013.78 1014.35 1014.91 1015.42 1015.85 1016.20 1016.45 1016.61 1016.68 1016.67 1016.61 1016.51 1016.38 1016.24 1016.10 1015.96 1015.83 1015.69 1015.55 1015.40 1015.24 1015.08 1014.91 1014.74 1014.57 1014.42 1014.29 1014.18 1014.09 1014.02 1013.97 1013.93 1013.89 1013.85 1013.80 1013.75 1013.70 1013.64 1013.59 1013.56 1013.55
1011.90 1012.34 1012.83 1013.37 1013.91 1014.44 1014.92 1015.33 1015.66 1015.91 1016.07 1016.16 1016.17 1016.14 1016.07 1015.98 1015.88 1015.78 1015.67 1015.56 1015.44 1015.32 1015.18 1015.02 1014.86 1014.69 1014.51 1014.34 1014.19 1014.05 1013.94 1013.86 1013.80 1013.76 1013.74 1013.73 1013.71 1013.70 1013.68 1013.65 1013.63 1013.62 1013.63 1013.66
1011.61 1012.01 1012.47 1012.96 1013.45 1013.93 1014.37 1014.75 1015.07 1015.31 1015.47 1015.57 1015.61 1015.61 1015.58 1015.53 1015.46 1015.39 1015.31 1015.23 1015.13 1015.02 1014.89 1014.75 1014.58 1014.41 1014.23 1014.06 1013.91 1013.77 1013.66 1013.58 1013.53 1013.51 1013.51 1013.52 1013.54 1013.56 1013.57 1013.59 1013.61 1013.63 1013.67 1013.73
1011.37 1011.72 1012.12 1012.54 1012.98 1013.40 1013.79 1014.13 1014.41 1014.64 1014.80 1014.91 1014.97 1015.00 1014.99 1014.98 1014.95 1014.91 1014.86 1014.80 1014.73 1014.64 1014.53 1014.40 1014.25 1014.09 1013.92 1013.76 1013.61 1013.48 1013.38 1013.31 1013.28 1013.27 1013.30 1013.34 1013.39 1013.45 1013.52 1013.57 1013.63 1013.69 1013.76 1013.85
1011.17 1011.46 1011.79 1012.14 1012.50 1012.84 1013.17 1013.46 1013.71 1013.90 1014.06 1014.16 1014.24 1014.28 1014.30 1014.31 1014.31 1014.30 1014.28 1014.25 1014.21 1014.14 1014.06 1013.96 1013.83 1013.70 1013.55 1013.41 1013.28 1013.18 1013.10 1013.05 1013.04 1013.07 1013.13 1013.21 1013.31 1013.42 1013.53 1013.64 1013.75 1013.85 1013.96 1014.08
1011.03 1011.24 1011.48 1011.75 1012.02 1012.29 1012.54 1012.77 1012.97 1013.13 1013.26 1013.35 1013.42 1013.47 1013.50 1013.52 1013.54 1013.55 1013.56 1013.55 1013.54 1013.51 1013.46 1013.39 1013.31 1013.21 1013.11 1013.00 1012.91 1012.84 1012.80 1012.79 1012.82 1012.88 1012.98 1013.11 1013.26 1013.43 1013.60 1013.77 1013.95 1014.11 1014.28 1014.44
1010.93 1011.06 1011.21 1011.39 1011.57 1011.76 1011.93 1012.10 1012.24 1012.35 1012.45 1012.52 1012.57 1012.60 1012.63 1012.66 1012.67 1012.69 1012.71 1012.73 1012.74 1012.74 1012.72 1012.70 1012.66 1012.61 1012.55 1012.50 1012.46 1012.44 1012.44 1012.48 1012.55 1012.66 1012.81 1013.00 1013.21 1013.44 1013.68 1013.93 1014.18 1014.42 1014.65 1014.88
1010.85 1010.90 1010.98 1011.06 1011.17 1011.27 1011.38 1011.47 1011.56 1011.62 1011.68 1011.71 1011.73 1011.74 1011.75 1011.76 1011.77 1011.78 1011.80 1011.82 1011.84 1011.86 1011.88 1011.89 1011.89 1011.89 1011.89 1011.89 1011.91 1011.94 1011.99 1012.08 1012.20 1012.37 1012.57 1012.82 1013.09 1013.39 1013.71 1014.04 1014.37 1014.69 1015.01 1015.31
Thickness
5778 5784 5782 5778 5777 5778 5775 5777 5773 5780 5783 5788 5789 5788 5788 5787 5786 5784 5783 5783 5782 5781 5780 5779 5777 5776 5775 5774 5773 5772 5769 5767 5766 5765 5764 5762 5760 5759 5758 5757 5757 5755 5754 5752
5761 5772 5772 5768 5771 5772 5772 5773 5774 5776 5777 5790 5787 5785 5780 5779 5777 5775 5775 5775 5776 5775 5774 5772 5770 5770 5769 5768 5767 5765 5763 5762 5761 5760 5758 5757 5755 5754 5753 5752 5752 5751 5749 5747
5751 5761 5757 5752 5766 5767 5767 5772 5770 5765 5772 5778 5773 5771 5771 5771 5770 5768 5768 5769 5768 5768 5767 5767 5766 5765 5763 5762 5761 5759 5758 5756 5755 5754 5752 5751 5750 5748 5747 5746 5746 5745 5744 5743
5744 5740 5727 5757 5773 5769 5763 5765 5769 5768 5768 5768 5765 5766 5767 5768 5765 5762 5762 5762 5762 5763 5762 5763 5762 5760 5758 5757 5755 5754 5752 5750 5749 5747 5745 5744 5742 5740 5739 5739 5739 5738 5737 5737
5734 5731 5737 5750 5755 5755 5750 5751 5761 5758 5758 5759 5761 5758 5758 5760 5760 5757 5757 5757 5757 5758 5758 5756 5755 5754 5752 5750 5749 5747 5745 5744 5742 5740 5737 5735 5734 5732 5732 5731 5730 5730 5730 5729
5723 5717 5720 5739 5748 5753 5746 5737 5750 5749 5747 5749 5748 5741 5747 5751 5751 5750 5750 5749 5749 5750 5749 5747 5746 5746 5743 5742 5740 5739 5738 5737 5735 5733 5730 5727 5726 5724 5724 5723 5722 5722 5721 5721
5715 5714 5728 5735 5739 5740 5722 5726 5738 5740 5739 5739 5738 5739 5743 5744 5742 5741 5741 5741 5742 5741 5739 5738 5738 5736 5734 5733 5732 5732 5732 5730 5727 5726 5724 5722 5719 5717 5715 5715 5714 5714 5713 5712
5709 5705 5713 5726 5727 5720 5720 5726 5729 5731 5732 5730 5730 5733 5734 5733 5732 5732 5732 5732 5732 5730 5729 5729 5728 5727 5725 5724 5724 5724 5723 5721 5719 5718 5717 5716 5712 5710 5708 5707 5705 5705 5704 5703
5709 5710 5714 5719 5717 5717 5719 5717 5719 5722 5724 5723 5722 5723 5723 5724 5724 5724 5724 5723 5723 5721 5719 5719 5719 5718 5715 5715 5716 5715 5714 5712 5710 5710 5708 5707 5705 5703 5701 5699 5699 5698 5696 5695
5696 5703 5705 5707 5709 5709 5710 5710 5713 5715 5715 5715 5714 5715 5714 5715 5715 5714 5714 5714 5713 5712 5710 5709 5709 5708 5707 5707 5707 5705 5704 5703 5702 5702 5700 5699 5698 5697 5696 5694 5692 5691 5689 5686
5685 5692 5693 5696 5698 5699 5700 5703 5705 5706 5706 5706 5706 5706 5706 5705 5706 5706 5705 5705 5703 5702 5700 5700 5699 5699 5699 5698 5697 5696 5695 5694 5694 5694 5692 5689 5688 5686 5685 5683 5683 5681 5680 5679
5680 5684 5683 5686 5691 5692 5691 5692 5694 5695 5695 5696 5698 5697 5697 5696 5696 5695 5695 5695 5694 5694 5693 5692 5692 5690 5690 5689 5688 5687 5686 5685 5686 5685 5683 5681 5679 5676 5671 5670 5668 5666 5665 5664
5675 5679 5680 5681 5683 5684 5684 5685 5686 5687 5687 5687 5689 5689 5688 5687 5687 5686 5685 5685 5685 5685 5685 5684 5683 5682 5682 5681 5679 5678 5677 5676 5677 5676 5674 5672 5670 5668 5665 5659 5656 5655 5653 5652
5668 5669 5669 5672 5674 5677 5677 5678 5680 5680 5680 5680 5680 5680 5680 5679 5679 5678 5677 5678 5678 5678 5678 5677 5676 5674 5673 5673 5671 5670 5669 5667 5667 5666 5666 5664 5662 5660 5657 5655 5652 5649 5644 5641
5660 5663 5664 5667 5667 5669 5670 5671 5670 5671 5671 5671 5672 5671 5671 5670 5669 5669 5670 5671 5670 5670 5670 5669 5667 5665 5666 5664 5662 5661 5661 5660 5659 5658 5657 5655 5653 5651 5648 5646 5644 5642 5640 5635
5653 5655 5656 5656 5657 5659 5661 5662 5662 5662 5663 5663 5663 5663 5663 5663 5662 5662 5662 5663 5661 5661 5661 5660 5658 5658 5657 5656 5654 5653 5652 5649 5648 5648 5647 5646 5643 5642 5640 5638 5636 5634 5632 5630
5643 5644 5646 5647 5649 5651 5653 5654 5655 5655 5655 5655 5655 5656 5656 5655 5654 5653 5653 5654 5654 5653 5653 5651 5650 5649 5648 5647 5646 5646 5644 5642 5638 5639 5639 5637 5635 5633 5632 5630 5628 5626 5624 5621
5640 5641 5642 5642 5643 5644 5645 5646 5647 5648 5647 5648 5648 5648 5647 5646 5645 5644 5645 5645 5645 5645 5644 5643 5642 5641 5639 5638 5637 5637 5636 5635 5632 5631 5629 5628 5627 5625 5623 5621 5620 5618 5617 5614
5634 5635 5635 5636 5637 5638 5639 5639 5639 5640 5639 5639 5638 5638 5638 5637 5636 5636 5636 5635 5635 5634 5634 5635 5631 5631 5631 5630 5628 5627 5628 5627 5625 5623 5621 5618 5617 5616 5615 5613 5612 5611 5610 5607
5627 5628 5629 5629 5631 5631 5631 5631 5631 5631 5631 5631 5630 5629 5629 5629 5628 5627 5627 5626 5627 5627 5626 5625 5625 5625 5624 5623 5620 5622 5621 5619 5617 5615 5613 5611 5610 5608 5608 5606 5605 5604 5602 5600
5621 5621 5621 5622 5622 5623 5624 5624 5624 5623 5623 5623 5622 5621 5621 5620 5620 5619 5619 5619 5618 5617 5617 5615 5617 5617 5616 5614 5612 5614 5613 5611 5609 5607 5605 5604 5602 5601 5600 5599 5598 5598 5596 5594
5615 5615 5615 5615 5615 5615 5617 5617 5617 5617 5616 5616 5616 5615 5614 5613 5613 5612 5611 5611 5610 5607 5608 5611 5611 5608 5606 5604 5607 5606 5605 5603 5601 5599 5598 5596 5596 5595 5594 5593 5592 5591 5589 5587
5609 5610 5610 5610 5610 5610 5611 5611 5611 5610 5609 5608 5608 5607 5607 5607 5607 5606 5605 5605 5604 5600 5601 5602 5599 5596 5595 5597 5599 5598 5597 5595 5594 5592 5591 5590 5590 5589 5588 5587 5586 5584 5582 5581
5603 5603 5604 5605 5605 5605 5604 5605 5605 5604 5604 5603 5602 5601 5600 5600 5600 5600 5599 5595 5593 5592 5594 5591 5588 5587 5587 5591 5591 5591 5590 5588 5587 5586 5585 5584 5583 5582 5581 5580 5579 5578 5576 5574
5598 5598 5599 5599 5599 5600 5600 5600 5600 5600 5600 5600 5599 5597 5597 5595 5594 5593 5592 5590 5587 5585 5587 5585 5582 5581 5583 5585 5585 5584 5583 5582 5581 5580 5578 5577 5577 5576 5574 5573 5573 5572 5570 5569
5594 5595 5595 5595 5596 5596 5598 5598 5597 5597 5596 5595 5594 5593 5592 5590 5588 5587 5585 5585 5583 5580 5581 5581 5581 5578 5580 5580 5579 5578 5577 5575 5574 5573 5572 5571 5570 5569 5568 5567 5566 5565 5564 5563
5592 5593 5592 5593 5594 5594 5594 5594 5593 5592 5591 5590 5589 5588 5586 5585 5584 5583 5581 5581 5580 5579 5578 5578 5578 5577 5576 5575 5574 5572 5571 5570 5568 5567 5566 5565 5564 5563 5563 5561 5560 5559 5558 5557